CW1621 Weather Reports


Display with metric or nautical units.
time (UTC)temp
F
wind
direction
speed
MPH
gust
MPH
rain 1hr
in
rain 24hr
in
rain mn
in
humidity
%
barometer
mb
20260504190603 66 280 12.0 17.0 0.00 0.00 0.00 50 1011.1
20260504185603 66 268 13.0 17.0 0.00 0.00 0.00 49 1011.0
20260504185103 66 277 11.0 16.0 0.00 0.00 0.00 49 1011.1
20260504184603 66 271 11.0 15.0 0.00 0.00 0.00 49 1011.2
20260504184103 67 277 10.0 14.0 0.00 0.00 0.00 48 1011.2
20260504183603 67 286 7.0 14.0 0.00 0.00 0.00 47 1011.2
20260504183103 67 290 6.0 10.0 0.00 0.00 0.00 47 1011.2
20260504182603 67 288 7.0 12.0 0.00 0.00 0.00 47 1011.2
20260504182103 66 292 5.0 12.0 0.00 0.00 0.00 50 1011.3
20260504181103 65 279 12.0 17.0 0.00 0.00 0.00 46 1011.4
20260504180603 65 282 11.0 17.0 0.00 0.00 0.00 47 1011.1
20260504180103 65 260 12.0 14.0 0.00 0.00 0.00 48 1011.1
20260504175604 65 277 10.0 13.0 0.00 0.00 0.00 49 1011.2
20260504175103 65 264 12.0 17.0 0.00 0.00 0.00 46 1011.3
20260504174602 65 269 10.0 14.0 0.00 0.00 0.00 46 1011.0
20260504174103 66 292 5.0 12.0 0.00 0.00 0.00 48 1010.9
20260504173603 65 286 9.0 15.0 0.00 0.00 0.00 47 1011.2
20260504173103 66 285 7.0 14.0 0.00 0.00 0.00 47 1011.0
20260504172603 67 263 3.0 13.0 0.00 0.00 0.00 47 1010.9
20260504172103 68 269 3.0 13.0 0.00 0.00 0.00 49 1010.8
20260504171603 68 275 7.0 10.0 0.00 0.00 0.00 41 1010.8
20260504171103 69 341 3.0 6.0 0.00 0.00 0.00 46 1010.7
20260504170603 69 336 3.0 7.0 0.00 0.00 0.00 46 1010.5
20260504150603 65 185 0.0 0.0 0.00 0.00 0.00 51 1009.3
20260504141103 54 185 0.0 0.0 0.00 0.00 0.00 77 1010.0
20260504140602 54 185 0.0 0.0 0.00 0.00 0.00 76 1009.9
20260504140103 53 185 0.0 2.0 0.00 0.00 0.00 75 1010.1
20260504130603 52 185 0.0 2.0 0.00 0.00 0.00 60 1009.8
20260504120103 50 232 0.0 0.0 0.00 0.00 0.00 65 1010.3
20260504110603 52 232 0.0 0.0 0.00 0.00 0.00 63 1010.1
20260504100104 48 232 2.0 3.0 0.00 0.00 0.00 73 1010.3
20260504090104 47 232 3.0 5.0 0.00 0.00 0.00 75 1010.7
20260504081603 49 233 2.0 3.0 0.00 0.00 0.00 72 1010.7
20260504081103 48 233 2.0 3.0 0.00 0.00 0.00 71 1010.8
20260504080603 48 233 2.0 3.0 0.00 0.00 0.00 74 1010.7
20260504070104 46 233 3.0 5.0 0.00 0.00 0.00 78 1011.4
20260504050603 49 252 2.0 3.0 0.00 0.00 0.00 75 1012.5
20260504050103 50 252 2.0 3.0 0.00 0.00 0.00 74 1012.2
20260504045604 50 253 2.0 3.0 0.00 0.00 0.00 72 1012.3
20260504045103 51 253 2.0 3.0 0.00 0.00 0.00 71 1012.3
20260504044603 52 253 2.0 3.0 0.00 0.00 0.00 69 1012.1
20260504044104 52 258 2.0 3.0 0.00 0.00 0.00 64 1012.1
20260504043603 52 267 0.0 3.0 0.00 0.00 0.00 68 1012.1
20260504043104 52 281 0.0 0.0 0.00 0.00 0.00 69 1012.1
20260504042604 53 281 0.0 0.0 0.00 0.00 0.00 69 1012.1
20260504041603 54 281 0.0 0.0 0.00 0.00 0.00 66 1011.9
20260504041103 55 281 0.0 0.0 0.00 0.00 0.00 65 1011.9
20260504040603 56 281 0.0 0.0 0.00 0.00 0.00 62 1012.0
20260504040103 56 281 0.0 0.0 0.00 0.00 0.00 58 1012.0
20260504035104 58 281 1.0 2.0 0.00 0.00 0.00 56 1011.7
20260504034604 60 281 1.0 1.0 0.00 0.00 0.00 55 1011.5
20260504034103 61 281 1.0 2.0 0.00 0.00 0.00 51 1011.4
20260504033604 61 281 2.0 3.0 0.00 0.00 0.00 47 1011.4
20260504033103 61 281 2.0 3.0 0.00 0.00 0.00 46 1011.5
20260504032603 62 281 2.0 3.0 0.00 0.00 0.00 47 1011.1
20260504032104 62 281 2.0 3.0 0.00 0.00 0.00 45 1011.1
20260504031603 62 281 2.0 3.0 0.00 0.00 0.00 45 1011.1
20260504031104 62 281 2.0 3.0 0.00 0.00 0.00 45 1011.0
20260504030603 63 281 3.0 3.0 0.00 0.00 0.00 43 1011.0
20260504025604 64 281 3.0 3.0 0.00 0.00 0.00 42 1010.8
20260504025103 64 281 3.0 5.0 0.00 0.00 0.00 42 1010.8
20260504024603 65 294 2.0 3.0 0.00 0.00 0.00 39 1010.7
20260504024103 65 294 3.0 5.0 0.00 0.00 0.00 39 1010.7
20260504023603 66 294 3.0 5.0 0.00 0.00 0.00 40 1010.5
20260504023103 66 292 3.0 5.0 0.00 0.00 0.00 39 1010.5
20260504022604 67 288 3.0 3.0 0.00 0.00 0.00 40 1010.5
20260504022103 68 288 2.0 3.0 0.00 0.00 0.00 39 1010.3
20260504021103 68 288 3.0 5.0 0.00 0.00 0.00 40 1011.4
20260504020603 68 293 3.0 3.0 0.00 0.00 0.00 39 1011.6
20260504020103 69 285 2.0 3.0 0.00 0.00 0.00 38 1011.7
20260504015603 69 293 3.0 6.0 0.00 0.00 0.00 40 1011.7
20260504015103 69 307 2.0 5.0 0.00 0.00 0.00 38 1011.7
20260504014603 69 332 2.0 5.0 0.00 0.00 0.00 36 1011.5
20260504014103 70 317 2.0 6.0 0.00 0.00 0.00 35 1011.6
20260504013603 70 335 1.0 6.0 0.00 0.00 0.00 35 1011.7
20260504013103 71 318 4.0 9.0 0.00 0.00 0.00 34 1011.7
20260504012103 71 318 2.0 7.0 0.00 0.00 0.00 34 1011.8
20260504011603 71 318 3.0 6.0 0.00 0.00 0.00 33 1011.9
20260504011104 71 313 3.0 10.0 0.00 0.00 0.00 32 1012.3
20260504010603 72 331 3.0 9.0 0.00 0.00 0.00 31 1012.5
20260504010104 72 310 3.0 6.0 0.00 0.00 0.00 31 1012.5
20260504005104 72 327 2.0 7.0 0.00 0.00 0.00 35 1012.6
20260504004603 72 327 3.0 9.0 0.00 0.00 0.00 33 1012.7
20260504004104 72 324 4.0 12.0 0.00 0.00 0.00 33 1012.7
20260504003603 72 317 3.0 12.0 0.00 0.00 0.00 34 1012.8
20260504003103 72 315 5.0 12.0 0.00 0.00 0.00 34 1012.7
20260504002603 73 286 3.0 7.0 0.00 0.00 0.00 33 1012.8
20260504002103 73 292 3.0 12.0 0.00 0.00 0.00 37 1012.6
20260504001603 73 325 3.0 12.0 0.00 0.00 0.00 36 1012.6
20260504001104 73 326 5.0 13.0 0.00 0.00 0.00 37 1011.9
20260504000603 73 331 5.0 13.0 0.00 0.00 0.00 36 1011.7
20260503235104 73 284 6.0 14.0 0.00 0.00 0.00 40 1011.8
20260503234604 73 302 5.0 14.0 0.00 0.00 0.00 41 1011.8
20260503234103 72 308 5.0 13.0 0.00 0.00 0.00 40 1012.1
20260503233603 72 290 10.0 14.0 0.00 0.00 0.00 42 1012.2
20260503232603 71 296 10.0 15.0 0.00 0.00 0.00 43 1012.2
20260503232103 72 286 9.0 15.0 0.00 0.00 0.00 42 1012.3
20260503231603 73 289 4.0 14.0 0.00 0.00 0.00 43 1012.0
20260503231103 73 273 3.0 10.0 0.00 0.00 0.00 46 1012.3
20260503230603 72 333 5.0 13.0 0.00 0.00 0.00 42 1013.1
20260503230104 73 298 6.0 10.0 0.00 0.00 0.00 40 1013.0
20260503225603 73 340 5.0 9.0 0.00 0.00 0.00 40 1013.1
20260503225104 73 293 5.0 9.0 0.00 0.00 0.00 41 1013.0
20260503224103 73 296 6.0 12.0 0.00 0.00 0.00 42 1013.3
20260503223603 73 347 4.0 14.0 0.00 0.00 0.00 41 1013.3
20260503223103 74 291 4.0 10.0 0.00 0.00 0.00 41 1013.3
20260503222104 73 300 5.0 7.0 0.00 0.00 0.00 43 1013.4
20260503221603 74 303 5.0 9.0 0.00 0.00 0.00 42 1013.5
20260503220603 73 358 2.0 9.0 0.00 0.00 0.00 42 1013.1
20260503220103 73 317 3.0 9.0 0.00 0.00 0.00 42 1013.2
20260503215603 72 322 2.0 6.0 0.00 0.00 0.00 43 1013.4
20260503215104 72 302 2.0 7.0 0.00 0.00 0.00 41 1013.6
20260503214603 71 311 9.0 20.0 0.00 0.00 0.00 44 1013.6
20260503214103 73 289 7.0 15.0 0.00 0.00 0.00 40 1013.4
20260503213603 73 295 4.0 10.0 0.00 0.00 0.00 40 1013.5
20260503213104 73 6 2.0 6.0 0.00 0.00 0.00 43 1013.6
20260503212603 72 288 9.0 13.0 0.00 0.00 0.00 38 1013.8
20260503212103 73 358 4.0 10.0 0.00 0.00 0.00 42 1013.6
20260503211603 73 299 3.0 9.0 0.00 0.00 0.00 42 1013.7
20260503211103 73 321 2.0 10.0 0.00 0.00 0.00 44 1013.7
20260503210603 74 289 5.0 7.0 0.00 0.00 0.00 38 1014.0
20260503205603 74 331 2.0 7.0 0.00 0.00 0.00 42 1014.0
20260503205103 74 306 3.0 10.0 0.00 0.00 0.00 46 1014.0
20260503204603 74 342 3.0 8.0 0.00 0.00 0.00 44 1014.1
20260503204103 74 311 3.0 12.0 0.00 0.00 0.00 45 1014.1
20260503203103 74 356 3.0 7.0 0.00 0.00 0.00 44 1014.1
20260503202603 74 14 3.0 10.0 0.00 0.00 0.00 45 1014.1
20260503202103 74 341 2.0 10.0 0.00 0.00 0.00 46 1014.2
20260503201603 74 1 1.0 7.0 0.00 0.00 0.00 46 1014.1
20260503201103 74 351 3.0 7.0 0.00 0.00 0.00 43 1014.3
20260503200604 75 13 2.0 6.0 0.00 0.00 0.00 43 1014.3
20260503195103 74 322 3.0 7.0 0.00 0.00 0.00 43 1014.7
20260503194604 74 348 2.0 7.0 0.00 0.00 0.00 48 1014.5
20260503194103 74 348 2.0 6.0 0.00 0.00 0.00 49 1014.6
20260503193603 74 347 3.0 9.0 0.00 0.00 0.00 45 1014.8
20260503193104 74 344 2.0 7.0 0.00 0.00 0.00 43 1014.9
20260503192103 73 330 2.0 6.0 0.00 0.00 0.00 43 1015.0
20260503191603 73 315 2.0 6.0 0.00 0.00 0.00 46 1015.0
20260503191103 73 28 1.0 5.0 0.00 0.00 0.00 48 1014.8